Theta_e
355 353 353 353 353 353 355 354 353 355 354 354 355 354 353 360 369 370 367 363 358 354 351 347 347 349 350 351 351 351 350 348 347 348 349 349 347 349 350 347 346 347 347 349 347 343 341 341 341 342 339 338 339 340 341 342 344 346 348 354 355 354 352 350 350 349 336 323 325 331 336 341 344 344
356 354 354 355 355 354 355 355 352 353 357 357 355 356 355 355 361 365 367 366 359 354 353 349 348 351 350 350 351 350 351 349 347 348 349 349 348 348 348 345 345 346 344 347 347 344 342 342 343 345 343 343 345 345 344 343 343 345 346 350 354 354 352 350 350 350 344 329 322 328 332 336 340 343
354 355 355 355 355 355 355 355 353 353 356 358 355 355 357 358 359 360 364 367 362 355 355 352 349 350 350 350 351 350 351 350 347 349 349 347 348 348 346 345 343 342 341 343 345 343 342 342 343 346 346 346 348 348 347 346 344 345 345 346 349 350 350 350 350 350 348 338 324 324 330 333 335 340
356 357 357 356 356 356 356 356 355 355 356 356 356 356 357 359 360 359 362 366 363 357 356 355 351 350 350 349 350 350 350 349 348 349 349 347 348 347 345 345 341 340 341 341 343 342 342 341 343 346 347 347 349 350 350 349 346 345 346 346 345 347 348 349 350 349 349 345 332 322 326 331 332 336
358 358 359 359 357 355 356 356 355 354 354 354 355 356 356 358 359 357 360 364 364 359 356 356 354 352 351 350 350 350 349 349 349 348 347 346 347 346 345 345 343 342 342 342 342 342 342 343 344 345 346 348 349 350 350 351 349 347 346 346 344 345 347 349 350 350 349 348 341 326 322 329 331 332
359 359 360 360 358 356 355 357 356 354 353 353 353 354 356 358 357 356 357 361 362 361 358 357 356 354 354 352 352 352 349 349 349 347 347 347 346 346 346 347 346 344 342 341 342 344 345 346 346 346 347 348 349 349 351 351 351 350 347 346 345 345 347 349 349 350 350 349 347 335 322 324 330 331
358 358 358 359 358 357 356 358 357 355 354 354 353 354 355 357 357 356 357 358 359 359 359 357 357 357 356 355 354 352 350 348 348 348 349 348 347 348 348 348 348 347 345 344 344 346 347 347 347 347 348 350 350 349 350 351 352 352 348 346 346 345 347 349 349 350 350 349 349 343 329 321 327 331
358 358 358 359 357 357 357 358 358 356 354 354 354 355 356 356 357 357 357 357 357 358 358 358 358 357 356 355 353 352 349 347 347 348 347 347 348 349 348 347 348 349 348 346 346 348 348 347 348 349 350 351 351 350 350 351 351 352 350 346 346 346 346 348 349 349 350 350 349 347 339 325 322 328
359 358 358 358 357 357 357 357 357 356 355 355 355 356 356 355 355 355 355 355 354 355 356 357 356 355 355 353 351 350 348 347 346 346 346 347 347 347 346 347 348 349 348 347 348 350 349 349 350 352 352 352 352 351 350 350 351 352 351 348 347 347 347 347 348 348 349 350 350 349 345 335 324 323
358 358 357 356 355 356 357 356 355 355 355 355 354 354 355 356 355 355 354 354 354 354 355 355 355 354 352 352 350 349 348 348 347 347 347 346 345 345 347 348 348 348 348 350 352 352 351 351 353 354 354 354 354 353 351 351 352 352 353 352 349 348 347 347 347 347 347 349 349 349 348 343 332 323
355 356 356 355 355 355 356 355 354 354 354 354 354 354 355 356 356 357 356 355 355 355 355 355 355 354 352 352 350 349 349 348 348 347 346 344 344 347 348 348 349 349 351 353 354 354 353 353 354 355 355 356 355 353 351 351 352 353 353 352 351 348 347 346 347 346 347 348 349 349 348 347 341 331
354 354 354 354 353 354 355 354 354 354 354 356 356 356 356 356 357 357 358 358 357 357 357 356 355 354 353 352 350 349 349 348 346 346 347 349 351 352 352 351 352 353 354 355 355 356 356 355 356 357 356 357 356 353 351 352 352 353 353 351 351 350 349 347 347 347 346 347 348 349 348 348 346 340
355 355 354 353 352 352 353 353 353 354 356 357 356 354 353 354 357 357 358 358 358 357 358 357 355 353 352 351 350 350 349 348 349 351 354 356 357 357 357 356 357 357 357 357 357 357 357 357 358 359 358 357 355 353 353 353 352 352 352 351 352 353 352 349 348 347 347 346 347 348 348 348 347 346
356 356 355 353 352 353 352 351 353 355 355 354 353 350 349 349 352 354 356 357 357 357 358 356 354 353 353 353 352 352 353 354 355 357 358 360 360 360 360 359 359 359 358 358 358 357 357 359 360 359 358 357 355 354 353 352 352 352 352 352 353 354 354 352 350 348 347 347 346 347 348 348 348 347
358 357 354 352 353 355 355 353 354 354 353 352 351 349 348 347 348 350 352 353 354 355 357 357 356 356 356 356 356 357 358 359 358 358 359 360 361 361 362 361 360 358 357 357 357 356 357 359 359 357 357 356 354 352 352 351 351 351 352 353 353 355 355 353 350 349 348 348 347 346 347 347 348 348
355 355 353 351 350 352 353 354 356 356 354 355 354 353 353 354 353 352 352 351 351 352 355 356 357 357 357 358 359 360 359 359 358 357 358 358 359 359 359 360 359 356 355 355 357 359 359 358 356 356 355 355 353 352 352 353 353 353 353 353 354 355 356 353 351 350 349 348 347 347 346 346 347 348
351 351 352 351 349 350 351 353 357 358 356 355 357 357 359 360 359 359 359 357 354 353 353 353 354 356 357 359 360 359 359 358 357 357 357 357 357 358 357 357 356 355 354 355 358 359 358 355 355 355 355 354 354 354 355 355 355 356 355 354 354 355 356 355 354 354 354 351 349 347 347 346 346 347
351 350 351 350 350 350 352 353 357 360 360 358 358 359 360 360 360 360 360 358 356 354 354 354 355 356 357 358 358 358 357 356 356 355 355 356 357 358 357 357 356 356 355 357 358 357 355 355 356 357 356 357 357 357 357 356 356 356 356 355 355 356 356 355 356 356 356 355 353 350 348 347 345 345
352 353 351 350 351 352 354 355 358 360 361 359 359 359 358 357 358 358 357 356 354 353 354 355 356 356 357 356 355 354 353 353 353 353 354 355 356 357 357 358 358 357 356 355 356 356 357 357 358 358 358 358 358 357 356 356 356 356 356 355 356 356 356 356 356 357 357 356 356 355 352 350 347 345
353 354 354 354 354 354 355 356 357 358 359 359 358 358 358 358 358 357 357 357 355 355 355 356 355 354 353 351 347 345 346 348 351 353 355 355 355 357 358 359 358 357 357 356 357 358 359 358 358 358 358 358 358 357 356 357 357 356 356 357 357 356 357 357 356 357 357 357 357 356 355 354 351 348
353 354 355 356 356 355 355 356 356 357 357 355 355 356 357 358 358 357 357 356 356 354 352 349 344 340 338 337 336 338 343 347 351 354 355 356 357 358 358 359 359 358 357 357 358 358 358 358 357 357 358 358 358 357 357 357 357 358 358 358 357 358 357 358 358 357 357 358 358 358 357 355 354 352
353 354 354 354 355 355 355 355 354 354 353 353 352 352 353 352 354 354 351 347 346 344 340 336 332 329 329 331 334 337 340 343 347 353 356 356 357 358 358 358 359 358 357 357 357 357 357 357 357 357 358 357 357 357 358 357 358 358 358 358 358 358 358 358 358 358 358 358 357 358 357 356 355 354
352 351 351 351 352 352 352 351 351 350 348 344 341 340 343 346 348 346 340 336 335 335 334 334 334 333 333 334 335 335 334 335 341 350 355 357 359 360 359 359 359 358 357 357 357 357 357 357 357 357 358 358 358 357 357 358 358 357 357 358 358 358 358 358 358 358 358 358 358 357 357 356 356 355
352 351 350 350 350 349 348 347 345 340 334 329 325 326 331 338 340 337 333 333 333 332 331 334 335 337 338 337 336 337 337 339 346 352 356 357 356 356 355 355 356 357 357 357 356 356 355 355 356 356 357 358 358 358 358 358 357 357 357 358 358 358 358 358 358 358 358 358 357 358 357 357 357 356
347 349 351 350 348 348 345 340 334 327 324 325 326 327 329 333 333 331 332 335 333 328 327 332 338 342 342 340 340 341 341 345 350 353 352 347 343 344 347 349 351 354 355 354 354 353 353 354 355 355 356 357 357 357 357 357 357 357 358 357 356 357 358 358 358 358 358 358 358 358 358 358 358 357
344 345 349 348 345 343 340 333 328 328 330 332 333 334 334 335 334 332 331 329 325 322 327 337 344 346 344 342 342 342 343 346 351 351 346 340 339 344 349 349 350 351 352 351 351 351 351 353 354 355 356 356 357 357 357 357 357 357 356 356 356 357 357 357 357 358 358 359 359 358 358 358 358 358
341 340 341 340 337 335 332 330 331 334 335 335 335 335 333 331 330 328 324 321 320 326 337 345 346 345 343 340 340 342 346 349 348 346 343 341 345 349 349 348 349 349 348 348 348 348 349 350 352 354 355 356 356 357 357 357 356 355 356 356 356 356 356 356 357 357 358 359 359 359 359 359 359 359
333 332 332 332 332 332 332 332 332 332 330 328 325 323 322 321 321 320 319 320 325 335 343 346 345 343 340 339 340 343 345 344 342 341 342 345 348 347 346 345 345 342 340 342 344 344 345 347 350 352 353 354 356 356 356 355 354 354 354 354 353 353 354 355 356 356 357 357 358 358 359 359 358 358
330 331 331 329 327 326 325 322 320 317 316 315 315 316 318 319 320 322 324 328 333 339 343 343 341 340 339 341 342 342 341 339 339 341 344 346 345 343 342 342 341 338 339 341 343 343 344 346 347 347 347 350 353 354 354 353 352 351 351 351 351 350 351 353 355 356 356 356 357 357 358 359 359 359
328 327 323 317 313 311 310 310 311 313 317 320 322 325 327 328 329 330 333 336 339 339 339 338 338 339 341 343 342 340 340 340 340 341 343 343 342 342 341 340 339 339 340 342 342 342 342 342 342 342 344 347 351 352 351 351 350 349 348 347 347 348 349 352 354 355 355 355 356 356 357 357 358 358
318 315 310 305 306 310 314 318 322 326 328 328 329 331 334 336 335 334 335 337 337 334 335 339 341 342 342 342 341 340 341 340 339 340 340 340 340 338 337 336 337 338 339 339 338 338 338 337 336 338 340 343 345 345 345 346 347 347 345 344 345 347 348 350 353 355 355 356 356 356 356 356 356 354
308 307 307 311 317 324 329 331 333 334 333 331 332 334 336 335 333 332 333 334 334 333 336 341 343 342 340 340 340 340 339 337 338 339 338 337 336 335 335 336 338 338 337 337 336 335 334 334 334 334 335 337 338 338 340 344 346 345 344 343 342 344 346 349 353 354 352 349 348 347 346 345 347 350
306 308 315 323 329 332 333 333 332 331 330 331 333 333 333 332 331 331 332 334 336 337 339 341 340 338 337 337 337 337 336 336 337 337 335 335 334 334 335 337 336 336 335 335 334 333 333 333 333 333 333 333 333 333 335 339 340 338 338 339 340 343 346 347 346 344 340 336 332 329 327 326 331 342
306 311 320 326 328 328 327 327 327 327 327 329 330 330 331 331 331 331 333 336 337 337 338 338 336 335 335 334 335 335 335 335 335 334 333 333 332 332 333 334 334 334 334 334 333 332 332 332 332 331 331 330 330 329 329 331 331 331 334 338 341 342 342 339 336 335 332 328 325 325 326 326 329 336
308 315 324 327 326 324 324 324 325 326 327 328 328 329 330 330 329 330 333 335 335 334 335 335 334 333 333 333 334 334 333 333 333 332 332 331 331 331 332 333 333 333 333 333 332 332 332 331 331 331 330 329 330 330 331 331 332 333 335 337 337 336 334 332 330 328 325 324 326 329 332 333 335 338
312 321 326 325 324 324 324 325 326 326 327 327 328 328 328 328 328 330 332 333 332 332 333 333 333 333 334 334 334 334 333 332 331 330 330 330 330 331 331 332 332 331 331 332 332 330 330 330 329 329 330 330 332 333 334 334 333 333 332 332 332 330 329 327 325 324 324 327 331 334 336 338 340 340
318 324 325 323 324 325 326 326 326 326 327 327 327 328 328 329 330 330 330 330 331 332 333 334 334 334 334 334 334 334 332 331 329 329 329 329 329 329 330 330 331 331 331 330 329 329 328 328 328 329 331 332 333 333 332 330 330 329 328 329 328 327 326 325 325 327 330 333 335 338 339 339 338 337
322 326 326 325 326 326 326 326 326 327 327 327 327 328 329 329 329 329 329 330 330 330 330 330 331 330 329 329 330 330 329 329 329 328 328 328 328 328 329 329 329 329 329 328 328 327 327 328 329 330 331 331 330 329 328 327 326 325 325 326 326 326 327 328 330 331 333 335 336 337 335 335 334 334
326 327 326 326 326 326 326 327 327 327 327 327 328 328 328 328 328 328 329 328 327 325 325 326 327 327 326 326 327 328 328 328 328 328 327 327 327 327 327 327 327 327 327 327 327 327 328 328 329 328 327 327 326 326 326 326 326 325 325 326 327 328 329 330 331 332 333 333 333 332 331 331 331 330
326 326 325 325 325 326 326 326 326 326 326 325 325 326 325 325 326 326 326 325 324 324 324 325 326 326 326 326 326 326 326 326 326 326 326 325 325 325 326 326 326 326 326 327 327 327 327 326 325 325 324 324 325 325 325 326 326 326 326 326 327 328 328 328 328 329 330 329 329 329 330 329 328 326
324 324 324 324 324 324 324 324 323 323 323 323 323 323 323 323 323 323 323 323 323 324 325 325 324 325 325 325 324 324 325 324 324 324 324 324 324 324 324 324 324 325 325 325 325 324 324 323 323 322 322 323 323 323 324 325 325 326 326 326 326 326 326 326 326 327 326 326 326 326 326 326 326 327
322 322 322 321 321 321 321 321 320 320 320 321 320 320 320 321 321 321 322 322 322 322 322 322 322 322 323 323 323 322 322 322 323 323 322 321 321 321 322 322 322 322 322 322 322 322 321 321 320 320 321 321 322 323 324 325 325 325 325 325 325 324 324 324 324 324 323 323 323 324 325 326 327 327
320 320 319 319 318 318 318 318 318 318 318 318 318 318 318 319 319 319 319 319 319 319 319 319 319 319 320 320 320 320 320 320 320 320 319 319 319 319 320 320 320 320 320 320 320 320 319 319 319 320 320 321 321 322 323 323 323 323 323 323 322 322 322 322 322 322 322 323 324 324 324 324 323 322
318 317 317 316 316 316 316 316 316 316 316 316 316 316 316 316 316 317 317 316 316 316 316 317 316 316 316 316 316 317 318 318 317 318 318 318 318 318 318 318 318 318 318 318 318 318 319 318 318 318 319 319 319 319 320 320 320 320 320 320 320 320 321 321 321 322 322 322 321 321 320 319 319 320
315 314 314 314 314 314 314 314 314 314 313 313 313 313 313 313 313 314 314 313 313 313 313 313 312 312 312 311 312 313 313 313 313 314 314 315 315 315 315 315 316 316 316 317 317 317 317 317 317 317 317 317 317 317 318 318 318 318 318 319 319 319 319 320 320 320 320 319 319 319 319 320 320 321
Wind_Speed
4 3 3 3 3 3 4 4 2 0 3 3 1 2 3 3 1 0 2 3 5 8 10 13 9 5 6 11 12 13 12 11 13 13 13 15 16 16 18 23 27 25 22 22 19 15 16 17 17 20 20 19 19 20 19 18 16 15 13 10 9 7 7 7 6 6 8 7 4 4 9 11 11 12
5 4 3 3 3 3 4 5 4 3 4 4 2 2 4 5 4 3 2 3 5 8 11 13 10 6 9 12 13 13 11 12 16 13 11 15 16 16 20 25 25 21 20 19 18 16 16 15 16 19 19 18 19 20 20 19 17 15 14 11 9 8 6 6 6 4 6 7 4 3 7 10 11 12
5 4 3 2 3 3 4 5 5 6 6 6 4 4 6 6 5 6 4 2 4 8 11 14 13 12 13 12 12 12 11 13 16 13 12 16 17 18 22 23 21 20 21 19 16 15 15 15 17 19 18 17 19 20 20 20 18 16 14 12 9 8 7 5 5 4 3 5 5 2 4 9 12 13
4 4 4 4 4 4 4 5 6 7 6 6 6 5 7 8 7 7 7 5 6 9 10 12 13 13 13 13 12 13 13 13 14 14 15 17 18 20 21 20 20 22 22 18 15 17 17 16 18 19 18 18 19 20 20 19 18 16 14 12 9 8 7 5 5 5 2 3 5 3 2 6 11 14
5 4 4 5 5 6 6 6 6 6 6 6 7 6 7 8 8 8 9 7 8 10 10 10 11 11 12 13 12 13 14 14 14 15 17 17 18 20 20 19 21 22 19 18 18 18 17 18 20 20 19 19 19 19 19 19 18 17 14 12 10 8 7 6 5 5 4 1 3 3 1 4 8 13
6 6 5 6 6 7 7 7 7 6 5 5 5 6 7 9 8 8 8 8 8 10 10 9 10 11 12 13 13 13 14 14 14 17 17 16 17 19 19 19 21 20 19 20 18 16 18 21 22 20 19 20 20 18 16 17 17 17 15 12 10 8 7 6 5 5 5 2 0 2 2 2 5 10
7 7 7 7 7 7 7 7 7 6 4 3 4 6 6 6 6 6 7 7 8 9 10 10 10 11 13 14 13 12 13 13 15 17 17 16 17 18 17 18 19 20 21 21 17 17 21 23 21 18 19 22 23 19 16 15 15 16 15 12 10 8 7 7 6 5 5 5 2 0 1 0 3 7
8 8 8 8 8 7 6 6 5 5 6 4 4 5 4 3 4 5 6 7 8 9 10 10 11 13 14 15 15 13 13 13 15 16 16 17 18 17 15 16 18 19 20 20 18 20 23 22 19 18 21 23 23 19 16 14 13 14 14 12 10 9 7 7 7 6 6 6 5 3 1 1 2 5
8 8 8 8 7 7 7 7 6 6 6 5 5 5 4 4 4 5 6 7 9 10 11 12 13 14 15 16 15 13 13 15 16 17 16 16 17 17 16 16 16 17 18 19 20 22 22 20 19 21 23 23 21 17 15 14 11 12 13 12 10 9 8 8 8 7 6 7 6 5 4 2 2 4
10 10 9 9 9 8 8 7 7 7 5 4 6 6 5 5 5 6 7 8 9 10 11 13 13 14 14 14 14 14 15 18 19 18 17 18 19 17 16 16 17 18 19 21 23 23 21 20 22 23 23 21 18 16 14 13 11 10 10 11 11 10 8 8 8 8 7 7 8 7 6 5 3 4
11 11 10 10 10 9 9 9 8 7 6 6 6 5 4 4 4 6 8 9 10 11 11 12 13 13 14 15 17 18 17 16 16 17 18 20 19 16 16 19 21 22 22 23 23 20 20 23 24 23 22 20 17 15 14 12 10 10 9 10 12 11 10 9 9 9 8 8 8 9 8 7 6 5
11 11 10 11 11 11 11 11 9 8 6 5 3 3 5 5 6 7 8 9 10 11 12 13 14 15 16 17 18 16 14 15 16 18 18 18 18 19 21 24 25 25 24 23 21 20 22 25 25 22 22 20 17 16 15 10 8 9 8 9 11 12 11 10 9 9 10 9 9 10 10 9 8 7
12 10 10 10 10 10 11 12 11 10 9 6 5 6 7 7 8 8 9 10 11 12 13 13 14 16 16 16 15 15 15 16 18 20 20 20 22 23 25 26 24 22 22 22 23 24 26 26 23 22 22 20 19 18 14 7 6 7 7 9 11 12 12 11 11 10 10 11 11 11 11 11 11 10
11 11 12 12 11 11 11 10 11 12 11 11 10 10 10 10 10 10 10 11 11 12 12 13 14 14 14 14 16 16 16 16 18 20 21 22 23 23 22 23 21 19 20 23 27 29 28 25 22 21 21 20 21 19 11 8 11 10 8 10 12 12 12 12 11 11 11 11 12 12 13 13 13 13
12 13 12 11 10 9 9 8 9 10 9 9 9 9 9 10 12 12 13 13 13 13 13 13 14 14 14 15 16 15 15 16 18 19 18 18 19 19 17 18 20 21 22 25 29 30 28 24 23 23 21 18 19 17 13 14 15 12 11 11 11 11 12 12 11 12 12 12 12 13 14 14 15 15
11 12 12 11 12 13 9 8 9 9 7 6 6 7 8 9 11 12 13 15 16 15 15 15 14 14 15 15 15 14 15 17 18 18 17 17 18 18 17 18 22 25 26 26 26 26 26 25 24 24 21 18 17 16 16 16 15 14 14 13 11 11 12 11 10 11 12 13 12 13 14 15 16 16
9 11 12 12 10 9 6 6 7 7 6 6 7 8 8 9 11 11 11 13 15 16 17 17 17 16 16 17 17 16 15 16 17 18 19 19 18 19 20 21 25 27 27 24 22 21 22 22 20 20 20 19 18 18 17 17 18 19 18 14 11 11 12 11 11 11 12 12 12 12 13 15 16 17
10 11 13 14 12 8 5 4 5 4 3 5 6 6 7 10 11 11 12 13 14 14 13 15 16 16 17 17 17 16 15 17 19 21 21 20 20 21 22 23 25 24 21 19 17 16 17 18 17 18 19 18 18 19 19 18 19 19 17 14 12 11 12 12 12 12 12 12 12 13 13 14 15 17
9 7 9 11 9 6 5 5 5 4 3 3 5 6 7 9 10 11 12 14 13 11 10 12 14 15 15 16 18 19 20 21 22 22 21 20 21 23 22 21 21 18 16 15 13 13 15 17 17 18 19 19 19 20 20 19 17 16 14 12 11 12 13 13 13 13 13 12 12 13 13 13 14 15
6 5 6 7 6 5 6 5 5 5 4 4 5 6 7 8 8 9 11 12 12 11 11 12 14 16 17 19 20 20 20 20 20 20 20 20 20 19 18 17 16 15 17 16 13 12 15 17 18 20 21 21 21 22 20 18 17 17 16 13 13 14 15 15 15 15 15 14 14 13 13 14 14 15
4 4 3 2 3 3 3 3 3 5 5 4 5 5 6 8 8 9 9 9 9 9 11 13 15 17 18 18 18 17 16 16 16 17 19 19 16 15 14 13 13 16 18 15 12 14 16 17 19 22 22 20 20 20 18 16 16 18 18 16 16 17 17 17 16 16 16 16 16 16 15 14 14 15
3 3 3 2 4 4 3 3 4 5 6 6 6 5 6 8 7 6 6 7 8 10 13 15 16 16 16 16 16 16 16 16 16 16 17 16 14 13 12 13 14 17 15 13 15 17 17 18 20 22 22 21 18 15 15 16 17 18 18 19 19 18 17 16 16 16 17 17 17 17 17 15 15 16
4 5 6 5 4 4 4 4 5 6 5 5 5 4 5 6 6 6 7 9 11 14 16 16 17 17 16 16 18 18 19 20 18 16 14 12 11 12 13 13 13 12 11 13 18 18 18 18 18 19 18 16 13 14 16 17 19 21 20 19 18 17 17 17 17 17 17 16 17 17 17 17 17 18
4 5 6 6 5 4 4 5 5 5 5 4 4 4 4 6 7 9 10 11 13 15 17 17 17 16 16 17 17 17 18 17 12 7 7 9 10 12 14 15 13 11 12 16 18 18 18 19 18 17 15 11 12 17 19 19 21 22 20 18 18 18 18 18 18 18 18 18 17 17 18 19 19 19
4 5 6 7 6 5 5 6 6 5 5 5 6 6 6 7 9 11 12 13 14 16 16 15 15 14 15 16 16 15 15 13 10 9 10 13 15 15 16 16 16 15 15 17 18 19 21 21 18 17 16 14 15 20 22 21 20 18 17 20 21 20 19 20 20 20 20 19 18 17 18 19 20 21
3 2 5 6 6 6 7 7 6 6 7 8 8 9 10 10 11 12 13 14 15 15 14 12 12 13 15 16 16 14 13 11 10 11 15 18 17 15 14 15 17 18 18 19 19 21 22 21 19 18 17 16 17 19 21 20 18 17 19 21 21 21 21 21 21 20 20 19 20 20 20 19 20 21
2 2 1 4 6 7 8 8 9 10 11 12 12 12 12 12 12 12 14 15 14 13 11 10 11 14 15 16 15 13 12 11 13 17 19 17 15 13 14 15 15 18 20 20 20 20 21 22 22 18 16 17 17 17 17 18 19 21 22 21 21 23 23 22 22 22 21 20 21 21 20 19 19 20
2 1 4 7 8 9 10 11 12 13 13 13 13 12 12 12 11 12 13 13 11 10 10 10 11 13 14 14 12 13 14 15 17 18 17 14 13 14 15 16 17 19 20 20 19 19 20 21 20 16 15 16 16 15 16 19 22 23 23 23 24 25 24 24 23 22 20 20 20 20 20 20 20 21
6 8 10 11 11 12 12 13 13 13 12 11 10 9 9 8 8 9 10 9 8 9 10 10 12 12 11 11 12 14 16 17 17 16 14 14 15 16 17 18 20 20 20 18 18 19 19 19 19 19 19 19 17 16 18 21 24 24 24 25 26 26 25 24 23 21 22 22 20 20 20 20 20 21
9 11 12 12 12 12 12 11 10 8 6 6 6 6 6 6 6 7 7 7 9 9 9 10 12 11 10 12 14 15 15 15 15 15 15 16 17 17 18 21 23 21 19 17 17 18 19 19 20 21 22 20 18 18 20 22 25 26 26 26 27 26 25 23 23 23 23 21 19 19 18 18 18 19
10 12 12 12 11 10 8 7 6 5 4 5 5 5 5 6 6 6 6 8 10 10 8 8 9 8 9 13 14 12 12 14 15 15 15 15 16 18 20 23 23 22 20 18 17 17 18 20 20 21 21 21 21 22 22 23 25 27 29 28 26 24 24 25 25 24 21 19 20 21 21 20 20 21
9 10 11 9 8 8 8 7 7 8 8 7 5 5 6 7 7 6 8 10 11 11 9 8 7 7 10 12 12 12 13 15 14 13 14 16 18 20 21 20 20 21 21 20 19 19 20 20 20 20 21 22 23 25 25 25 24 26 28 29 28 26 26 25 23 21 20 20 23 25 27 27 27 26
9 9 9 8 8 11 11 9 8 8 7 5 5 5 5 5 6 7 7 7 7 7 5 5 7 9 11 12 12 12 13 14 13 13 15 17 19 20 19 18 19 20 21 22 22 23 22 21 21 22 22 22 23 24 25 25 25 26 28 30 29 27 24 20 18 19 22 25 29 33 36 37 34 29
9 9 8 9 11 12 10 9 8 9 8 7 7 6 7 7 8 9 10 10 11 11 11 11 12 12 13 14 13 13 13 14 13 13 14 16 18 20 20 19 19 20 21 22 23 24 23 23 24 24 24 24 24 24 23 24 27 29 27 26 24 23 22 22 24 27 31 33 34 35 36 38 35 31
8 7 8 11 11 9 8 8 9 9 10 11 11 10 10 11 11 12 13 13 13 13 12 12 13 13 13 14 14 15 16 15 13 11 12 15 18 19 19 19 19 21 22 22 23 23 24 25 26 26 26 27 25 23 19 16 18 22 24 23 23 26 29 31 35 38 39 38 34 31 31 33 33 31
6 6 8 10 9 7 6 7 9 10 10 11 11 11 11 11 11 12 13 13 13 13 13 12 12 12 13 14 15 16 16 15 14 15 16 17 18 18 17 17 18 20 20 20 22 24 25 26 27 26 24 20 16 13 13 13 16 22 28 29 30 33 35 38 41 40 38 36 32 28 27 27 29 30
6 6 7 8 6 6 7 8 9 9 10 9 10 10 9 9 11 13 13 12 12 13 13 12 13 13 14 15 17 17 18 17 17 18 18 18 17 17 18 17 17 18 19 19 21 23 24 26 27 24 19 13 8 7 14 23 29 29 28 29 33 37 39 39 39 37 34 32 29 26 25 26 29 32
5 6 6 6 7 7 8 8 8 8 8 8 8 9 8 9 12 13 12 11 13 14 14 14 15 16 17 18 18 18 19 18 18 18 18 17 18 17 17 17 18 18 19 20 22 23 23 23 23 20 16 12 7 7 14 25 33 35 32 30 33 37 36 35 33 31 29 29 27 27 28 29 31 32
4 5 6 7 8 7 7 7 8 8 8 9 9 10 11 11 11 11 11 12 14 16 16 15 15 15 16 15 15 15 16 17 17 18 18 17 17 17 17 18 18 19 20 21 22 22 21 19 19 21 23 21 18 19 22 27 32 37 37 33 31 32 32 30 28 28 28 28 28 30 32 32 33 35
4 6 7 7 8 8 8 8 9 9 10 11 11 11 12 13 12 12 13 14 15 16 15 14 14 15 14 14 14 14 15 16 16 17 18 18 19 19 19 20 19 19 19 20 20 19 20 21 22 26 28 29 29 30 32 30 30 32 33 29 26 27 29 29 28 29 29 30 30 31 31 32 36 38
8 8 8 8 9 10 10 10 11 11 11 11 11 12 13 14 13 13 14 14 15 16 15 14 15 16 15 15 16 16 17 17 17 17 18 19 20 20 21 21 20 19 19 19 20 20 22 24 26 29 30 31 31 30 27 23 22 25 27 26 26 27 28 29 30 31 32 33 34 32 31 31 33 34
8 8 8 9 10 10 11 12 11 11 11 11 12 13 13 13 13 13 14 15 17 18 17 17 18 18 18 18 19 19 19 19 18 18 19 20 20 21 21 21 20 20 20 21 21 23 25 26 28 29 29 29 28 26 21 18 20 24 26 27 28 28 28 30 32 34 36 36 34 32 30 27 23 21
7 7 8 9 10 11 11 12 12 13 13 13 13 13 13 12 13 13 14 15 16 17 17 18 18 18 18 19 19 18 17 18 18 19 20 21 21 21 21 20 20 21 22 23 23 25 26 26 26 27 26 26 25 23 22 23 25 27 29 29 30 31 32 32 34 34 33 31 28 26 28 28 24 23
8 9 9 10 11 11 11 12 12 13 14 14 14 15 15 15 15 14 14 15 16 16 16 17 18 18 19 20 19 18 18 19 20 20 20 20 20 20 21 22 23 23 23 24 25 25 25 25 25 25 25 25 25 24 25 26 27 28 30 31 32 33 33 32 32 31 31 31 31 32 35 38 37 36
9 9 10 10 10 10 10 11 12 12 13 13 14 14 14 15 15 15 15 15 16 16 16 18 20 20 22 23 22 21 21 21 21 20 20 21 21 21 22 22 23 24 24 24 25 25 26 26 26 25 25 25 25 25 26 27 28 29 31 31 31 31 32 32 32 33 35 37 38 37 36 36 35 35
Wind_Direction
248 213 197 204 197 200 195 176 157 250 220 202 174 133 152 157 162 230 316 302 299 307 307 303 293 265 316 332 322 315 321 329 326 315 313 322 324 317 310 310 312 310 306 299 295 311 329 336 348 353 350 350 348 343 336 332 335 338 334 332 328 329 337 334 342 22 32 32 61 143 173 172 165 165
251 231 206 207 215 219 206 203 216 217 195 188 187 180 180 184 182 186 235 280 287 300 307 310 310 303 311 321 318 311 313 327 323 312 312 323 324 315 309 313 316 317 314 302 292 303 318 328 342 349 349 350 348 345 340 334 335 338 336 333 329 326 330 331 330 0 38 33 42 133 183 193 188 178
253 238 229 235 233 233 231 224 214 208 205 198 201 210 195 192 202 203 205 244 282 296 307 310 315 320 315 315 323 321 317 321 319 316 323 325 323 316 312 318 327 331 325 313 305 310 314 324 336 341 343 346 348 348 343 338 337 339 338 334 328 325 325 325 319 328 28 37 30 80 182 202 202 194
251 236 226 233 240 240 243 245 229 219 218 209 209 216 202 200 215 217 211 226 270 293 301 302 309 321 321 317 322 324 321 319 317 319 323 322 319 316 317 325 330 327 324 323 327 324 316 323 333 333 336 341 345 347 344 340 339 339 339 336 330 324 322 320 311 307 338 42 30 36 160 200 205 201
250 241 232 239 247 243 242 249 248 242 241 231 222 222 213 208 210 214 219 230 265 291 297 297 304 315 318 316 318 322 319 315 315 317 319 318 318 318 323 328 325 325 334 339 338 333 326 329 330 326 329 335 338 342 343 340 339 340 340 336 332 326 318 316 306 295 296 6 36 23 73 187 203 203
251 252 247 247 249 247 243 244 250 255 255 244 237 236 227 218 214 217 222 228 252 284 300 306 310 317 319 318 319 318 314 313 315 315 315 318 321 323 326 327 325 332 342 338 336 340 335 330 326 321 326 332 331 332 337 337 337 339 340 337 332 328 317 311 304 289 283 273 28 20 23 175 196 201
246 249 250 252 252 250 247 241 244 260 267 247 237 239 235 231 236 242 244 245 256 280 300 312 315 316 314 313 311 307 307 312 313 311 311 314 319 321 323 326 327 332 332 329 336 343 333 326 324 323 330 334 330 325 326 331 333 335 338 337 330 325 317 308 304 287 275 271 254 272 7 210 197 199
241 241 246 251 254 259 267 261 254 265 271 269 258 251 247 245 257 264 264 269 280 290 300 307 308 307 304 305 303 300 304 310 310 310 309 309 311 315 318 323 325 325 326 330 338 334 324 324 331 335 335 333 330 325 319 318 324 331 336 338 331 323 314 305 301 290 270 265 261 246 242 244 211 206
246 249 250 253 256 258 264 264 257 255 260 273 276 266 262 260 265 277 283 284 287 289 291 293 296 300 300 301 304 308 310 308 304 303 305 307 311 311 312 317 322 324 327 330 329 324 321 329 339 339 335 331 330 327 317 306 307 321 331 338 336 325 314 302 297 293 275 259 259 255 243 231 217 214
247 248 249 255 257 253 254 257 256 257 263 273 268 268 284 290 284 288 292 292 292 292 293 293 295 300 303 306 312 311 303 297 295 298 306 314 316 312 311 320 326 325 325 324 323 323 327 333 335 333 331 330 328 326 319 304 292 301 320 334 337 330 317 303 293 290 282 263 256 257 252 242 227 216
249 248 248 249 249 248 251 254 255 256 257 258 262 278 300 298 294 300 301 303 305 306 307 305 304 305 307 307 304 301 301 303 306 311 312 312 317 325 327 327 326 324 323 323 322 323 327 329 329 328 329 328 324 321 321 308 283 284 305 325 335 332 322 309 294 286 281 271 259 256 256 253 242 227
255 255 254 250 250 249 244 244 249 254 252 243 250 293 311 310 306 303 301 304 308 308 304 302 303 305 303 299 297 304 320 328 329 330 324 319 329 338 331 323 323 324 324 324 323 324 326 327 327 327 329 330 325 317 315 304 275 274 294 317 331 332 325 312 299 288 280 274 265 256 255 255 253 244
266 266 266 261 258 251 246 246 243 237 234 230 246 278 290 294 294 291 294 297 299 299 297 296 300 301 300 305 316 329 337 336 334 339 340 336 334 332 324 320 324 328 328 327 324 323 325 326 327 328 328 328 325 314 303 295 291 286 293 313 323 329 329 317 303 292 282 273 268 261 255 254 254 253
279 276 274 270 264 255 252 252 240 233 239 248 261 276 279 275 279 285 291 295 297 301 302 302 305 305 310 323 333 335 334 336 336 338 338 333 327 326 323 320 324 329 330 327 322 321 325 328 326 325 323 324 328 324 314 321 326 312 305 314 318 325 332 326 310 298 287 277 269 264 259 255 253 254
279 287 290 291 298 293 273 262 253 249 257 266 273 285 288 281 280 283 286 288 293 299 302 305 308 310 315 322 328 331 331 332 332 330 328 325 323 323 320 316 317 320 323 322 316 316 324 328 321 317 317 321 330 330 324 330 331 323 316 317 316 321 330 332 324 309 297 288 276 267 263 259 255 254
293 317 325 324 340 349 330 301 292 276 262 271 288 296 299 294 291 289 286 283 284 285 288 294 298 301 306 312 318 323 323 323 326 325 322 320 316 312 310 305 305 310 314 314 308 308 318 324 320 320 324 328 331 331 334 339 338 328 321 314 309 317 324 329 331 322 311 302 290 276 267 262 260 257
304 314 312 294 302 330 325 303 307 296 263 260 278 286 291 300 304 298 291 286 284 282 283 284 285 289 295 300 306 312 316 320 324 323 320 319 314 308 305 300 302 309 314 309 300 302 316 323 324 328 334 335 335 337 340 338 329 320 314 305 301 311 316 320 324 323 318 310 301 291 278 267 263 261
317 312 306 292 287 295 289 272 282 286 257 255 276 295 305 308 306 298 299 304 297 290 290 291 293 296 295 295 300 307 308 309 313 314 314 313 310 305 303 303 306 312 317 310 299 303 320 330 329 329 333 335 332 331 329 324 322 321 314 302 300 308 311 313 315 317 318 313 304 299 290 279 271 264
334 322 295 286 285 276 261 262 267 262 251 270 300 323 320 311 302 296 307 316 309 297 298 302 304 304 301 299 301 304 302 301 304 307 307 305 302 300 304 309 312 317 327 331 324 316 325 335 333 328 330 330 324 324 324 324 328 334 329 314 306 309 311 310 308 308 312 311 307 302 296 290 281 272
335 327 287 279 278 260 249 257 269 269 268 284 307 317 313 308 304 302 309 316 313 309 309 309 307 305 303 304 305 306 306 306 307 306 302 300 300 302 308 316 320 324 329 337 343 335 331 337 335 327 327 327 322 323 329 331 334 337 336 329 318 314 313 310 305 302 301 302 303 302 298 293 286 278
318 327 329 296 253 245 257 274 285 284 286 296 308 315 314 308 305 308 312 315 320 322 319 315 312 310 308 308 309 310 311 311 309 302 296 297 303 309 312 314 319 323 323 330 349 345 333 334 332 325 323 324 323 323 326 330 331 333 334 332 325 319 314 309 305 301 298 297 296 295 297 296 288 278
308 293 299 264 233 235 259 283 290 295 302 309 309 308 312 310 308 316 326 326 322 317 315 315 317 319 320 320 320 320 319 317 307 292 290 296 300 303 308 310 314 319 321 332 345 341 331 331 331 326 322 321 321 322 324 328 330 330 330 328 324 321 319 315 310 305 301 296 293 291 291 290 286 281
300 285 277 261 252 265 278 287 296 303 311 318 312 306 314 316 316 323 332 332 326 321 323 326 327 329 332 331 328 324 321 318 306 290 292 302 296 294 304 309 311 315 319 328 335 334 329 329 330 328 324 320 321 326 329 328 325 325 327 328 326 325 325 321 318 314 308 301 295 291 287 285 283 281
281 284 284 283 286 295 304 315 319 322 332 333 329 337 335 321 319 322 325 328 329 328 328 327 326 328 329 327 325 323 324 329 332 325 329 332 319 312 313 314 313 311 313 323 331 332 329 326 325 328 327 318 314 321 325 325 323 324 329 330 328 326 324 320 317 316 314 309 303 294 286 282 280 280
282 267 270 280 285 291 313 334 343 342 340 331 327 337 334 322 320 321 320 322 325 325 324 320 318 321 321 321 323 325 327 343 15 26 359 343 336 329 323 319 319 315 314 323 330 328 323 320 318 323 324 316 311 315 319 320 322 325 326 325 324 323 320 317 314 312 311 311 309 302 292 286 283 283
307 269 254 267 278 292 312 327 332 323 315 311 312 315 314 311 310 308 308 312 315 317 318 315 312 316 318 318 321 326 328 337 349 343 333 333 334 331 324 322 323 322 320 322 323 320 315 310 310 315 318 317 316 317 317 318 322 325 325 325 324 322 320 319 316 312 310 308 307 306 302 297 292 289
54 90 209 267 287 298 302 304 304 302 300 300 301 301 301 302 302 300 302 306 311 315 318 313 310 314 317 315 319 330 339 335 329 329 331 333 333 330 328 327 325 322 319 317 318 318 312 307 306 309 314 319 320 319 318 317 320 322 324 325 323 321 320 319 315 313 310 308 307 306 305 303 301 299
46 346 297 298 300 296 294 294 294 294 293 293 294 293 294 296 296 296 299 304 309 309 306 304 306 309 311 314 322 337 342 336 332 334 334 331 328 328 327 325 322 320 318 317 318 319 316 313 314 319 325 326 321 318 318 317 317 320 321 320 318 317 316 315 314 313 313 312 309 306 304 304 305 305
319 304 299 303 302 296 294 293 292 292 292 292 292 292 292 293 292 295 299 301 297 291 292 302 307 306 309 318 326 333 335 335 335 335 333 330 330 330 327 324 324 325 326 324 322 322 324 327 331 333 330 324 318 315 316 315 314 316 317 316 314 315 315 314 313 313 314 314 310 306 305 305 304 305
304 302 302 306 305 301 297 291 289 290 290 290 297 300 293 283 283 289 291 284 275 276 287 301 302 302 313 323 327 330 333 333 333 332 331 331 331 332 330 328 326 328 331 330 328 327 328 331 332 329 324 320 316 312 312 311 309 310 312 313 312 313 315 315 313 312 313 315 315 314 312 310 307 307
308 308 308 306 305 306 305 294 287 287 283 287 302 305 288 278 282 289 285 275 271 276 286 293 294 304 320 324 326 330 332 330 329 329 331 333 336 337 333 326 323 325 328 330 329 328 328 328 326 323 320 317 313 309 308 305 301 302 305 308 308 309 312 313 312 313 317 320 321 322 321 317 312 308
320 315 310 305 308 314 311 298 291 292 289 286 293 299 292 286 289 288 279 273 273 275 274 276 293 322 331 327 327 330 328 326 326 331 336 338 337 334 326 319 317 321 324 327 329 328 327 326 324 322 320 317 313 311 308 301 296 297 300 302 304 304 305 307 312 320 329 334 332 330 325 318 313 306
326 324 326 329 327 320 312 306 308 312 312 303 294 301 312 314 316 315 310 310 320 329 328 328 342 349 340 329 324 322 321 321 325 331 336 335 334 331 325 319 318 321 323 325 327 327 327 327 327 325 323 320 316 313 309 302 298 296 295 295 297 298 303 315 329 335 337 338 334 327 320 314 309 304
325 328 336 335 329 328 333 340 340 338 346 354 349 345 350 351 349 354 0 3 4 7 6 358 352 345 333 323 319 317 315 315 316 323 330 332 333 331 327 322 321 324 325 325 325 328 331 332 331 329 325 321 317 312 308 299 292 293 297 299 302 310 321 332 335 331 328 329 326 321 314 309 306 304
318 323 327 325 328 335 341 343 343 349 1 9 10 8 4 1 360 1 3 2 357 355 353 345 338 331 321 316 315 314 312 313 317 328 335 333 328 323 319 319 320 323 325 325 327 332 335 336 336 333 327 322 317 315 317 311 300 310 325 328 326 329 330 328 326 323 321 321 319 314 306 302 303 306
318 323 311 308 314 323 334 348 2 8 7 7 8 5 357 353 353 354 358 0 355 348 341 332 324 319 315 314 318 320 321 326 337 342 338 329 322 318 316 317 317 318 321 324 327 331 333 334 333 328 320 317 314 314 327 331 324 328 335 333 327 325 323 320 319 318 316 314 312 305 296 293 299 306
304 307 299 304 322 342 353 2 6 4 2 0 357 351 345 345 349 353 356 356 351 347 344 339 337 336 335 335 337 335 334 336 338 334 327 322 320 319 319 319 319 320 321 323 325 326 326 323 318 312 308 312 320 319 322 322 318 317 323 324 318 315 315 313 311 309 308 307 304 299 297 298 303 307
284 294 312 342 4 6 2 0 359 357 356 351 346 345 347 348 349 351 351 349 350 352 351 345 342 341 338 335 333 330 329 331 328 322 318 317 317 318 320 322 323 322 322 321 319 318 315 310 307 313 324 335 337 322 319 319 315 313 314 314 309 306 306 304 301 301 305 306 304 304 306 306 305 306
296 321 354 12 11 5 0 359 358 355 355 357 360 0 358 353 350 349 348 347 348 349 346 339 332 328 324 322 322 321 322 322 320 318 318 318 319 322 324 323 321 319 317 316 314 314 316 316 321 331 335 329 318 311 309 307 305 305 308 310 307 303 303 303 302 305 308 310 310 311 310 309 308 308
1 12 19 16 9 8 8 6 6 5 4 5 4 1 360 360 356 351 345 342 339 336 332 328 323 321 321 323 326 326 323 320 320 321 325 327 328 330 330 329 326 322 319 317 317 320 323 324 325 326 324 317 311 309 305 299 296 298 302 306 307 306 307 309 311 311 311 313 314 314 313 313 312 309
30 25 20 17 16 16 13 10 9 6 3 3 1 0 2 1 354 345 341 341 341 340 338 337 337 339 339 339 342 343 339 335 333 334 337 339 339 337 338 337 334 330 325 321 319 318 317 317 318 318 317 314 312 309 303 297 296 298 301 304 306 307 307 308 310 312 313 315 315 312 309 307 304 302
25 19 19 20 20 17 12 10 8 2 359 359 357 356 356 352 346 344 343 345 350 353 354 353 354 354 350 346 347 348 345 341 339 340 342 343 339 335 333 330 324 322 319 315 312 311 312 313 315 314 313 312 311 308 301 300 303 306 307 309 309 308 306 305 305 306 306 306 304 301 301 304 304 304
16 16 18 19 18 16 10 8 6 1 358 356 354 353 352 348 346 348 349 350 353 353 351 350 350 348 345 342 341 340 337 337 337 336 335 333 330 325 322 320 317 316 314 310 308 310 311 311 313 313 312 312 312 309 307 308 309 310 310 310 310 309 309 306 304 303 302 300 298 297 300 305 304 299
19 17 16 15 14 10 6 5 4 1 0 0 359 359 357 354 353 355 356 355 355 352 351 353 356 356 354 352 351 348 345 342 339 334 329 327 325 323 321 320 318 316 313 310 310 310 310 311 313 313 311 310 310 309 307 307 308 308 308 308 308 308 309 309 309 309 308 304 301 299 297 296 292 288
19 15 11 8 5 2 2 3 2 360 360 359 356 354 353 352 351 350 349 352 356 357 357 359 0 357 354 353 354 354 351 348 345 340 336 333 331 328 326 324 321 318 316 315 314 313 313 313 312 310 308 306 305 304 303 303 304 305 305 305 306 308 310 311 313 312 307 302 300 300 299 297 296 295